Lid_Strength_Index
-1 -1 -0 0 0 1 1 -1 1 2 0 1 3 4 5 5 5 5 5 5 5 3 1 -0 -2 -2 -1 -1 -1 -1 -1 -0 -0 0 -0 -1 -1 -0 -1 -1 -1 -1 -1
0 1 0 1 1 1 1 1 2 3 3 4 3 4 4 4 5 5 5 5 5 4 3 1 -1 -2 -2 -2 -1 -1 -1 -0 0 1 1 -0 -1 -0 0 0 0 0 0
1 1 2 2 2 2 2 3 5 4 4 4 4 6 6 4 4 5 5 5 5 4 4 2 1 -1 -2 -2 -2 -2 -2 -2 0 1 1 1 -0 1 1 1 1 1 1
3 3 3 3 3 4 4 5 6 5 5 6 6 6 6 4 5 5 5 5 5 5 4 4 3 2 0 -1 -2 -2 -2 -2 -1 0 1 1 1 1 1 1 2 1 1
4 4 4 5 5 5 5 5 6 5 5 5 7 6 6 7 6 5 5 5 6 6 6 5 5 4 3 1 -1 -2 -2 -2 -2 -1 0 1 1 1 1 1 1 2 2
4 4 4 5 4 4 5 5 5 6 7 8 8 8 7 7 8 6 5 6 7 7 7 6 5 5 4 3 1 -0 -1 -2 -1 -2 -1 -0 1 1 1 1 1 2 2
7 6 6 5 5 5 6 5 5 6 6 7 6 5 5 6 7 7 6 6 7 8 7 7 7 6 5 5 4 2 0 -1 -2 -2 -2 -1 -1 0 1 1 1 2 2
10 9 8 8 8 7 7 7 6 6 6 6 8 6 7 6 7 6 6 7 8 7 7 8 7 7 7 6 5 4 3 1 -0 -1 -1 -1 -2 -1 0 1 1 1 1
11 11 11 11 10 9 9 9 8 7 7 6 7 8 8 9 9 6 6 7 7 7 7 7 7 7 7 7 7 6 5 4 4 3 2 0 -0 -1 -1 -0 0 1 1
12 11 11 11 11 11 11 11 10 10 8 9 7 7 6 8 10 10 7 7 8 8 7 7 7 7 7 7 7 8 8 7 6 5 4 4 2 0 -0 -1 -0 0 1
12 12 12 11 11 11 11 11 11 10 10 11 10 10 9 8 7 10 10 10 10 9 8 8 8 8 7 7 7 7 8 8 8 7 6 5 5 4 2 -0 -1 -0 1
12 12 12 12 12 12 11 11 11 11 11 11 11 11 11 11 12 12 13 12 11 10 10 9 9 8 7 7 8 10 9 9 8 8 7 6 6 5 4 3 0 -1 -0
12 12 12 11 12 12 11 11 11 11 11 11 11 11 11 11 11 11 12 13 13 10 10 8 8 8 8 7 8 11 10 9 8 8 7 7 6 5 5 5 4 1 -0
13 12 12 12 12 12 12 11 11 11 11 11 12 11 11 11 11 11 12 13 14 13 11 10 8 6 7 8 9 10 10 9 9 9 8 7 7 6 5 5 4 4 0
13 12 12 12 12 12 12 12 11 12 11 11 11 11 11 11 10 10 11 11 13 15 14 12 10 7 7 8 9 10 10 10 10 10 9 8 8 7 6 5 4 3 2
13 13 13 12 12 12 12 12 12 11 12 11 11 12 11 11 11 11 11 11 11 12 14 12 11 9 9 9 8 9 9 10 10 10 10 9 9 8 8 7 6 4 3
13 13 13 13 13 12 12 12 12 12 12 12 11 12 12 11 11 11 11 11 11 12 13 12 11 10 10 10 9 9 8 8 9 10 10 10 9 9 8 8 7 6 4
12 13 13 13 13 13 13 13 13 12 13 13 13 13 13 12 12 12 12 12 12 12 13 14 12 12 11 10 10 10 9 9 9 8 8 9 9 9 9 8 8 7 6
13 13 13 14 14 14 13 13 13 13 13 13 13 13 13 13 13 13 13 13 13 12 12 13 14 12 12 11 11 10 10 9 9 8 8 8 8 9 9 9 8 7 8
13 13 13 14 14 14 14 14 13 13 12 12 12 12 12 12 12 12 13 12 12 12 12 12 13 12 12 12 12 12 12 10 10 9 8 8 8 8 8 9 9 9 8
14 14 14 14 14 14 14 13 12 12 12 12 11 11 11 12 12 12 12 12 13 13 13 13 13 13 13 13 13 13 13 12 12 11 10 8 8 8 8 8 8 9 9
14 15 15 15 15 14 13 12 11 11 11 12 12 12 12 12 12 12 12 11 11 13 14 14 14 14 14 13 12 13 14 14 16 11 11 11 9 9 8 8 8 9 8
14 15 14 14 14 13 13 11 11 11 11 12 12 12 13 12 12 13 12 11 11 11 10 12 13 14 14 13 13 13 14 14 14 12 12 14 12 12 10 9 8 8 9
14 14 14 14 14 13 13 12 11 11 12 12 12 12 12 12 12 12 12 12 11 11 10 11 11 11 12 11 11 12 12 12 12 11 11 15 12 12 10 9 9 8 8
14 14 14 14 15 14 14 12 11 11 12 12 12 11 11 12 11 9 10 11 10 10 9 9 9 9 8 8 9 10 12 13 14 13 11 12 12 12 12 12 10 9 8
14 14 14 14 15 16 14 13 11 11 12 11 11 10 9 10 9 9 10 10 11 10 10 9 10 10 9 10 9 10 11 13 13 14 11 13 13 12 14 11 11 10 9